Skip Page Navigation
NASA JPL Caltech
NASA Logo - Jet Propulsion Laboratory + View the NASA Portal
+ Near-Earth Object (NEO) Program
Search JPL
JPL Home Earth Solar System Stars & Galaxies Technology
JPL Solar System Dynamics
BODIES ORBITS EPHEMERIDES TOOLS PHYSICAL DATA DISCOVERY FAQ SITE MAP
JPL Small-Body Database Browser
Search: [ help ]  
98127 Vilgusova (2000 SP24)
Classification: Main-belt Asteroid          SPK-ID: 2098127
Ephemeris | Orbit Diagram | Orbital Elements | Physical Parameters | Discovery Circumstances | Close-Approach Data ]

[ show orbit diagram ]
Orbital Elements at Epoch 2457600.5 (2016-Jul-31.0) TDB
Reference: JPL 8 (heliocentric ecliptic J2000)
 Element Value Uncertainty (1-sigma)   Units 
e .1804959755250579 4.6389e-08  
a 2.423102891917508 1.4538e-08 au
q 1.985742571643268 1.1698e-07 au
i 3.863715463781565 6.4947e-06 deg
node 308.0343230615748 9.9988e-05 deg
peri 128.3838255115384 0.00010359 deg
M 31.73592886262842 2.5097e-05 deg
tp 2457479.047929231410
(2016-Mar-31.54792923)
9.5693e-05 JED
period 1377.704924470617
3.77
1.2399e-05
3.395e-08
d
yr
n .2613041396642535 2.3517e-09 deg/d
Q 2.860463212191747 1.7163e-08 au
  Orbit Determination Parameters
   # obs. used (total)      435  
   data-arc span      7986 days (21.86 yr)  
   first obs. used      1994-02-11  
   last obs. used      2015-12-24  
   planetary ephem.      DE431  
   SB-pert. ephem.      SB431-BIG16  
   condition code      0  
   fit RMS      .54865  
   data source      ORB  
   producer      Otto Matic  
   solution date      2016-Feb-26 05:19:04  

Additional Information
 Earth MOID = 1.00216 au 
 Jupiter MOID = 2.40281 au 
 T_jup = 3.487 
[ show covariance matrix ]

Ephemeris | Orbit Diagram | Orbital Elements | Physical Parameters | Discovery Circumstances | Close-Approach Data ]

Physical Parameter Table
Parameter Symbol Value Units Sigma Reference Notes
absolute magnitude H 16.3 mag n/a MPC47941  

98127 Vilgusová           Discovered 2000 Sept. 24 by L. Šarounová and P. Pravec at Ondřejov.
Hedvika Vilgusová (1946-2007) was an illustrator of books of tales that have been published in several European countries. Her great empathy for a child's soul has resulted in her illustrations having a very positive charge of humanity.
NOTE: some special characters may not display properly (any characters within {} are an attempt to place the proper accent above a character)
Reference: 20080819/MPCPages.arcLast Updated: 2008-08-25

[ show close-approach data ]
Ephemeris | Orbit Diagram | Orbital Elements | Physical Parameters | Discovery Circumstances | Close-Approach Data ]
ABOUT SSD CREDITS/AWARDS PRIVACY/COPYRIGHT GLOSSARY LINKS
FirstGov 2016-May-05 04:48 UT
(server date/time)  
NASA Home Page
Site Manager:   Ryan S. Park
Webmaster  Alan B. Chamberlin